User: anonymous   Login
Location: Unspecified
(0.0000°N, 0.0000°E)
Time: 23:40:01
(UTC+00:00)
Language:

GOSAT - Orbit

View from above orbital plane
View from above orbital plane
View from above satellite
View from above satellite

Ground track
Ground track

The orbit data is extracted from the following two-line orbital elements,

1 33492U 09002A   16211.52159459 -.00000098  00000-0 -88414-5 0  9992
2 33492  98.1018 320.2945 0001238  92.2016 267.9319 14.67531539402501
Epoch (UTC): 29 July 2016 12:31:05
Eccentricity: 0.0001238
inclination: 98.1018°
perigee height: 668 km
apogee height: 670 km
right ascension of ascending node: 320.2945°
argument of perigee: 92.2016°
revolutions per day: 14.67531539
mean anomaly at epoch: 267.9319°
orbit number at epoch: 40250

The dashed part of the orbit path shows where the satellite is in the earth's shadow,  

DLR